{"data":{"norad_id":44071,"epoch":"2026-09-19T03:34:22.344672Z","epoch_age_seconds":138622,"freshness":"FRESH","line1":"1 44071U 19014A   26262.14886973  .00000042  00000+0  00000+0 0  9999","line2":"2 44071   0.0060 164.8138 0000332 275.5666  31.5857  1.00272625 27564","mean_motion":1.00272625,"eccentricity":3.32e-5,"inclination_deg":0.006,"raan_deg":164.8138,"arg_perigee_deg":275.5666,"mean_anomaly_deg":31.5857,"bstar":0,"rev_number":2756,"period_min":1436.0848736133,"perigee_km":35784.959619059,"apogee_km":35787.759341625,"semimajor_km":42164.496480342,"source":"CELESTRAK","updated_at":"2026-09-20T09:00:35.266140Z"}}